Location: Unspecified
(0.0000°N, 0.0000°E)
Time: 21:20:17
(UTC+00:00)

Envisat - Pass Details

Date: 14 February 2018
Orbit: 764 x 766 km, 98.2° (Epoch: 22 May)

Event Time Altitude Azimuth Distance (km) Brightness Sun altitude
Rises 19:39:33 0° 160° (SSE) 3,228 6.2 -20.8°
Reaches altitude 10° 19:41:54 10° 156° (SSE) 2,300 5.4 -21.4°
Maximum altitude 19:46:51 56° 78° (ENE) 908 3.0 -22.6°
Enters shadow 19:47:10 55° 63° (ENE) 918 3.0 -22.6°
Exits shadow 19:52:58 - 358° (N) 2,758 5.8 -24.0°
Sets 19:54:07 0° 356° (N) 3,213 6.1 -24.3°
